Rostock-Laage Airport ETNL

Flugplatz Daten

Name: Rostock-Laage Airport

Ident: ETNL

Lat: 53,91820145

Long: 12,27830029

Platzhöhe: 138 ft

IataCode: RLG

City: Rostock

Metar

2022/08/10 19:20
ETNL 101920Z 07008KT 9999 SCT360 20/11 Q1026 BLU+

Taf

2021/04/25 17:35
TAF ETNL 251600Z 2517/2606 30005KT 9999 NSW FEW060 BY ETGL
Gewünschte Webcam nicht vorhanden? Dann fügen Sie eine hinzu. Sie wird dann so schnell wie möglich freigeschaltet
Url: Title: